Location: Veytaux
(46.4185°N, 6.9320°E)
Time: 08:08:18
(UTC+00:00)

CZ-2D R/B - Visible Passes

Search period start: 06 October 2022 00:00
Search period end: 16 October 2022 00:00
Orbit: 791 x 844 km, 98.7° (Epoch: 05 October)

Date Brightness Start Highest point End Pass type
(mag) Time Alt. Az. Time Alt. Az. Time Alt. Az.
06 Oct 4.3 01:55:46 10° N 01:57:14 19° N 01:57:14 19° N visible
07 Oct 4.5 01:34:17 10° N 01:35:29 17° N 01:35:29 17° N visible
07 Oct 4.4 03:16:29 10° NNW 03:16:47 11° NNW 03:16:47 11° NNW visible
08 Oct 4.7 01:12:53 10° NNE 01:13:44 15° NNE 01:13:44 15° NNE visible
08 Oct 4.3 02:54:07 10° NNW 02:55:02 13° NNW 02:55:02 13° NNW visible
09 Oct 5.0 00:51:38 10° NNE 00:51:59 12° NNE 00:51:59 12° NNE visible
09 Oct 4.3 02:32:13 10° N 02:33:16 15° NNW 02:33:16 15° NNW visible
10 Oct 4.4 02:10:30 10° N 02:11:32 15° N 02:11:32 15° N visible
11 Oct 4.6 01:48:55 10° N 01:49:46 15° N 01:49:46 15° N visible
12 Oct 4.8 01:27:27 10° NNE 01:28:01 13° NNE 01:28:01 13° NNE visible
12 Oct 4.5 03:09:18 10° NNW 03:09:19 10° NNW 03:09:19 10° NNW visible
13 Oct 5.0 01:06:06 10° NNE 01:06:16 11° NNE 01:06:16 11° NNE visible
13 Oct 4.5 02:47:08 10° NNW 02:47:34 12° NNW 02:47:34 12° NNW visible
14 Oct 4.5 02:25:17 10° N 02:25:49 12° N 02:25:49 12° N visible
15 Oct 4.7 02:03:36 10° N 02:04:04 12° N 02:04:04 12° N visible
